Regional Weather Roundup
Issued by NWS

Home | Current Version | Previous Version | Text Only | Print | Product List | Glossary On
Versions: 1 2 3 4 5 6 7 8 9 10 11 12 13 14 15 16 17 18 19 20 21 22 23 24 25 26 27 28 29 30 31 32 33 34 35 36 37 38 39 40 41 42 43 44 45 46 47 48 49 50
055
ASUS43 KMPX 271210
RWRMN
WEATHER ROUNDUP FOR MINNESOTA
NATIONAL WEATHER SERVICE TWIN CITIES/CHANHASSEN MN
700 AM CDT TUE JUN 27 2017


NOTE: "FAIR" INDICATES FEW OR NO CLOUDS BELOW 12,000 FEET WITH NO
SIGNIFICANT WEATHER AND/OR OBSTRUCTIONS TO VISIBILITY. N/A MEANS
CURRENT SKY AND/OR WEATHER CONDITIONS ARE NOT AVAILABLE.

MNZ060>063-068>070-271300-
   Twin Cities Metro

CITY           SKY/WX    TMP DP  RH WIND       PRES   REMARKS
TWIN CITIES    MOSUNNY   56  45  66 SW6       30.10R
6HR MIN TEMP:  55; 6HR MAX TEMP:  60;

ST PAUL        SUNNY     53  53 100 CALM      30.10S
CRYSTAL        SUNNY     54  48  80 CALM      30.08S
BLAINE         SUNNY     55  52  88 S3        30.08S
LAKEVILLE      SUNNY     54  46  76 CALM      30.10S
EDEN PRAIRIE   SUNNY     54  47  77 SW5       30.09S
6HR MIN TEMP:  50; 6HR MAX TEMP:  57;

SOUTH ST PAUL  SUNNY     55  46  73 CALM      30.10S
LAKE ELMO      FAIR      52  50  93 CALM      30.10S
$$
MNZ001>005-007-008-013>017-022>024-027-028-271300-
   Northwest Minnesota

CITY           SKY/WX    TMP DP  RH WIND       PRES   REMARKS
BEMIDJI        MOSUNNY   51  43  73 S5        30.02S
HALLOCK        PTSUNNY   50  45  81 S9        29.91S
ROSEAU         MOSUNNY   52  46  82 S7        29.94F
WARROAD        CLOUDY    52  45  76 S5        29.95F
THIEF RVR FALL CLOUDY    52  43  71 S9        29.98S
CROOKSTON      CLOUDY    54  43  66 S10       29.97S
FOSSTON        CLOUDY    52  43  71 S10       30.01S
DETROIT LAKES  SUNNY     55  43  62 S9        30.04R
MOORHEAD       SUNNY     52  43  71 S10       30.00F
PARK RAPIDS    MOSUNNY   51  42  71 CALM      30.04R
MAHNOMEN       FAIR      51  43  72 S9        30.01S
$$
MNZ006-009>011-018-025>026-271300-
   North Central Minnesota

CITY           SKY/WX    TMP DP  RH WIND       PRES   REMARKS
BAUDETTE       CLOUDY    50  45  83 SW6       29.97S
FLAG ISLAND    SUNNY     55  46  71 S6        29.93S
INTL FALLS     MOSUNNY   49  45  86 VRB3      29.99R
6HR MIN TEMP:  40; 6HR MAX TEMP:  49;

WASKISH        MOSUNNY   52  45  76 S3        30.00S
BIG FORK       SUNNY     45  45 100 CALM      30.02S
LONGVILLE      SUNNY     46  46 100 CALM      30.04S
GRAND RAPIDS   SUNNY     59  44  57 VRB5      30.06R
CRANE LAKE     SUNNY     43  41  93 CALM      30.03R
ORR            SUNNY     45  43  93 CALM      30.00S
COOK           SUNNY     45  43  93 CALM      30.03R
WALKER         FAIR      51  45  79 SW7       30.03S
$$
MNZ012-019>021-037-271300-
   Northeast Minnesota

CITY           SKY/WX    TMP DP  RH WIND       PRES   REMARKS
DULUTH         SUNNY     54  45  71 W6        30.04S
6HR MIN TEMP:  44; 6HR MAX TEMP:  54;

ELY            SUNNY     48  46  93 SW3       30.02R
HIBBING        SUNNY     45  44  97 CALM      30.04R
EVELETH        SUNNY     49  46  92 W3        30.04R
DULUTH HARBOR  SUNNY     52  46  82 SW7       30.04S
TWO HARBORS    SUNNY     55  48  76 NW6       30.01S
SILVER BAY     SUNNY     48  48 100 CALM      30.01S
GRAND MARAIS     N/A     49  46  90 CALM      29.99S
G MARAIS ARPRT SUNNY     54  43  66 W3        30.01S
$$
MNZ029>031-032-039>041-046>048-054>057-064-271300-
   West Central Minnesota

CITY           SKY/WX    TMP DP  RH WIND       PRES   REMARKS
FERGUS FALLS   CLOUDY    55  45  67 S8        30.02F
WHEATON        SUNNY     54  43  66 S7        30.05F
MORRIS         SUNNY     52  45  76 S5        30.05S
ALEXANDRIA     SUNNY     56  44  64 SW7       30.08R
ELBOW LAKE     FAIR      53  45  72 S8        30.05S
WADENA         MOSUNNY   50  45  81 CALM      30.05S
GLENWOOD       SUNNY     52  46  82 S6        30.08S
APPLETON       SUNNY     55  43  62 S6        30.06S
BENSON         SUNNY     52  45  76 SW5       30.08S
ORTONVILLE     SUNNY     52  43  71 S5        30.05S
MADISON        SUNNY     54  46  76 S5        30.07R
WILLMAR        FAIR      52  46  82 CALM      30.09S
$$
MNZ033>034-036-042>043-049>051-058-059-271300-
   Central Minnesota

CITY           SKY/WX    TMP DP  RH WIND       PRES   REMARKS
ST CLOUD       SUNNY     49  47  93 CALM      30.08R
6HR MIN TEMP:  42; 6HR MAX TEMP:  49;

SAUK CENTRE    FAIR      52  44  74 CALM      30.08S
PAYNESVILLE    SUNNY     49  50 100 CALM      30.09S
AITKIN         SUNNY     48  46  93 CALM      30.04S
PINE RIVER     MOSUNNY   45  45 100 CALM      30.08S
BRAINERD       SUNNY     47  44  90 S3        30.06S
STAPLES        SUNNY     46  43  87 S3        30.05S
LONG PRAIRIE   FAIR      50  45  81 CALM      30.08R
LITTLE FALLS   MOSUNNY   45  43  93 CALM      30.07S
LITCHFIELD     SUNNY     55  45  67 CALM      30.09S
BUFFALO        SUNNY     51  47  84 CALM      30.11R
MAPLE LAKE     SUNNY     55  49  82 CALM      30.10R
HUTCHINSON     PTSUNNY   50  48  93 CALM      30.11R
$$
MNZ037-044-045-052-053-271300-
   East Central Minnesota

CITY           SKY/WX    TMP DP  RH WIND       PRES   REMARKS
PRINCETON      SUNNY     48  48 100 CALM      30.08S
MORA           SUNNY     46  45  93 CALM      30.09R
CAMBRIDGE      SUNNY     52  45  76 CALM      30.06S
RUSH CITY      SUNNY     50  46  87 CALM      30.08R
MOOSE LAKE     SUNNY     45  43  93 CALM      30.04S
HINCKLEY       FAIR      50  46  87 CALM      30.07R
CLOQUET        SUNNY     54  43  66 W6        30.05R
MCGREGOR       SUNNY     50  46  87 CALM      30.06S
$$
MNZ071>073-080-081-089-090-097-098-271300-
   Southwest Minnesota

CITY           SKY/WX    TMP DP  RH WIND       PRES   REMARKS
MONTEVIDEO     SUNNY     54  45  71 SW6       30.07F
GRANITE FALLS  SUNNY     52  46  78 S6        30.09S
CANBY          SUNNY     55  42  60 CALM      30.08R
MARSHALL       SUNNY     54  44  69 S7        30.08F
REDWOOD FALLS  SUNNY     53  43  68 S6        30.09S
OLIVIA         SUNNY     52  43  71 S3        30.08S
PIPESTONE      CLOUDY    54  41  62 S8        30.08F
WINDOM         SUNNY     54  43  66 S6        30.11S
WORTHINGTON    SUNNY     53  44  71 S7        30.12S
JACKSON        SUNNY     52  43  71 CALM      30.12S
TRACY          SUNNY     56  43  63 S9        30.09F
SLAYTON        SUNNY     49  41  73 S6        30.11S
$$
MNZ065>067-074>077-082>085-091>093-271300-
   South Central Minnesota

CITY           SKY/WX    TMP DP  RH WIND       PRES   REMARKS
MANKATO        SUNNY     52  45  77 S3        30.11F
NEW ULM        SUNNY     52  43  71 SW5       30.10S
ST JAMES       SUNNY     54  45  71 S5        30.12S
FAIRMONT       SUNNY     53  46  77 SW6       30.12S
GLENCOE        SUNNY     53  48  82 CALM      30.10R
FARIBAULT      SUNNY     54  46  76 CALM      30.11F
OWATONNA       SUNNY     54  45  71 CALM      30.12S
WASECA         SUNNY     52  45  76 CALM      30.13S
ALBERT LEA     SUNNY     54  46  76 CALM      30.13F
$$
MNZ078>079-086>088-094>096-271300-
   Southeast Minnesota

CITY           SKY/WX    TMP DP  RH WIND       PRES   REMARKS
ROCHESTER      SUNNY     53  47  79 SW6       30.13S
6HR MIN TEMP:  47; 6HR MAX TEMP:  53;

RED WING       SUNNY     52  48  87 CALM      30.09F
STANTON        SUNNY     53  47  78 S5        30.10R
DODGE CENTER   SUNNY     54  46  76 SW3       30.12F
WINONA         SUNNY     52  50  93 CALM      30.12S
AUSTIN         SUNNY     48  45  87 CALM      30.13S
PRESTON        SUNNY     54  44  70 SW6       30.14S
$$
ABBREVIATIONS USED IN REMARKS
   TC - TEMPERATURES IN CELSIUS
  WCI - WIND CHILL INDEX
   HX - HEAT INDEX
  VSB - VISIBILITY
$$




USA.gov is the U.S. government's official web portal to all federal, state and local government web resources and services.